Regional Weather Roundup
Issued by NWS Burlington, VT

Current Version | Previous Version | Text Only | Print | Product List | Glossary Off
Versions: 1 2 3 4 5 6 7 8 9 10 11 12 13 14 15 16 17 18 19 20 21 22 23 24 25 26 27 28 29 30 31 32 33 34 35 36 37 38 39 40 41 42 43 44 45 46

000
ASUS41 KBTV 310910
RWRBTV
VERMONT REGIONAL WEATHER ROUNDUP
NATIONAL WEATHER SERVICE BURLINGTON VT
500 AM EDT WED AUG 31 2016

NOTE: "FAIR" INDICATES FEW OR NO CLOUDS BELOW 12,000 FEET WITH NO
SIGNIFICANT WEATHER AND/OR OBSTRUCTIONS TO VISIBILITY.

* THESE REPORTS ARE NOT UNDER NWS QUALITY CONTROL AND/OR DO NOT
  REPORT WEATHER SUCH AS PRECIPITATION AND FOG.

VTZ001>019-311000-
_____VERMONT_____


CITY           SKY/WX    TMP DP  RH WIND       PRES   REMARKS
BURLINGTON     LGT RAIN  70  59  68 S6        29.93F
MONTPELIER     MOCLDY    60  58  92 CALM      30.00F
MORRISVILLE    LGT RAIN  62  60  93 CALM      29.98S
ST. JOHNSBURY*   N/A     62  59  90 MISG      29.94F
LYNDONVILLE*   LGT RAIN  59  59  97 CALM      29.98F
MIDDLEBURY*    CLOUDY    70  57  63 S5        29.95F
RUTLAND*       PTCLDY    59  56  89 SE6       29.99F
SPRINGFIELD    CLOUDY    57  55  93 CALM      29.99F
HIGHGATE*      CLOUDY    65  63  93 S3        29.92S
NEWPORT*       CLOUDY    62  60  94 S3        29.95F
BENNINGTON     CLOUDY    57  55  93 CALM      30.00F

_____LAKE CHAMPLAIN_____


CITY           SKY/WX    TMP DP  RH WIND       PRES   REMARKS
BURTON ISLAND*   N/A     68  63  83 SE10        N/A
COLCHESTER RF*   N/A     70  64  83 S16         N/A
DIAMOND ISL*     N/A    N/A N/A N/A S2          N/A

$$

NYZ007-026>031-035-052-083-087-311000-
_____NORTHERN NEW YORK_____


CITY           SKY/WX    TMP DP  RH WIND       PRES   REMARKS
PLATTSBURGH    CLOUDY    65  63  93 CALM      29.91F
SARANAC LAKE   CLOUDY    63  57  81 SW8       29.97F
MASSENA        LGT RAIN  66  61  84 SW6       29.93S
OGDENSBURG*    PTCLDY    64  63  94 CALM      29.92S
POTSDAM*       CLOUDY    70  63  78 W3        29.93S
WATERTOWN      CLOUDY    70  58  65 S7        29.93F
FT DRUM        CLOUDY    71  58  64 SW9       29.93F
ALBANY         CLOUDY    65  59  81 S3        29.99F
GLENS FALLS    CLOUDY    63  59  87 CALM      29.98F

$$
NHZ002-005-011-311000-
_____NEW HAMPSHIRE_____


CITY           SKY/WX    TMP DP  RH WIND       PRES   REMARKS
LEBANON        CLOUDY    61  57  87 CALM      29.97F
KEENE          CLOUDY    55  55 100 CALM      30.01F
MT WASHINGTON  SHOWER    48  48 100 W32         N/A  VSB 0
PLYMOUTH       FAIR      57  56  97 CALM      29.97F
WHITEFIELD     LGT RAIN  60  57  89 E3        29.98F

$$

_____REGIONAL QUEBEC LOCATIONS_____


CITY           SKY/WX    TMP DP  RH WIND       PRES   REMARKS
MONTREAL       CLOUDY    66  64  94 SW9       29.89S
QUEBEC CITY    CLOUDY    64  63  94 W2        29.86F
SHERBROOKE     CLOUDY    63  61  94 CALM      29.92S

_____REGIONAL ONTARIO LOCATIONS_____


CITY           SKY/WX    TMP DP  RH WIND       PRES   REMARKS
OTTAWA         PTCLDY    64  63  94 S6        29.90F

______KEY______
VSB  - VISIBILITY IN MILES
WCI  - WIND CHILL INDEX
HX   - HEAT INDEX
$$
NNNN




USA.gov is the U.S. government's official web portal to all federal, state and local government web resources and services.